ANZ605 NZWN-NZQN

Flight info

Callsign ANZ605
Flight time 1h 5m
Altitude 36000
Route SABDA Y622 MESIX H159 CH Y266 ELRUV
Aircraft A320/M-SDE3FGHIRWY/LB1

Departure

Time 2026-04-28 07:03
Airport Wellington International Airport (NZWN)

Arrival

Time 2026-04-28 08:08
Airport Queenstown Airport (NZQN)
Time Latitude Longitude Altitude Speed Heading
2026-04-28 06:44 -41.32831 174.80986 27 ft 0 kts 70°
2026-04-28 06:56 -41.32835 174.80970 26 ft 2 kts 75°
2026-04-28 06:56 -41.32839 174.80948 26 ft 2 kts 78°
2026-04-28 06:56 -41.32842 174.80927 26 ft 2 kts 88°
2026-04-28 06:57 -41.32841 174.80905 26 ft 2 kts 113°
2026-04-28 06:57 -41.32831 174.80888 26 ft 2 kts 166°
2026-04-28 06:57 -41.32820 174.80885 26 ft 1 kts 185°
2026-04-28 06:59 -41.32832 174.80885 26 ft 4 kts 183°
2026-04-28 06:59 -41.32876 174.80882 26 ft 10 kts 183°
2026-04-28 06:59 -41.32957 174.80869 26 ft 9 kts 216°
2026-04-28 07:00 -41.32984 174.80801 26 ft 9 kts 212°
2026-04-28 07:00 -41.33055 174.80793 26 ft 12 kts 183°
2026-04-28 07:00 -41.33144 174.80786 26 ft 14 kts 183°
2026-04-28 07:00 -41.33250 174.80781 26 ft 16 kts 182°
2026-04-28 07:01 -41.33370 174.80774 26 ft 19 kts 182°
2026-04-28 07:01 -41.33506 174.80765 26 ft 14 kts 184°
2026-04-28 07:01 -41.33572 174.80682 26 ft 15 kts 260°
2026-04-28 07:01 -41.33519 174.80638 26 ft 11 kts
2026-04-28 07:02 -41.33436 174.80639 26 ft 13 kts
2026-04-28 07:02 -41.33193 174.80657 27 ft 68 kts
2026-04-28 07:02 -41.32513 174.80704 32 ft 123 kts
2026-04-28 07:02 -41.31570 174.80765 391 ft 135 kts
2026-04-28 07:03 -41.30658 174.80798 1037 ft 131 kts
2026-04-28 07:03 -41.29750 174.80861 1661 ft 130 kts
2026-04-28 07:03 -41.28817 174.80928 2012 ft 142 kts 360°
2026-04-28 07:03 -41.27751 174.80999 2216 ft 163 kts 359°
2026-04-28 07:04 -41.26546 174.81040 2476 ft 184 kts 353°
2026-04-28 07:04 -41.25233 174.80692 2870 ft 199 kts 338°
2026-04-28 07:04 -41.23958 174.79963 3614 ft 201 kts 335°
2026-04-28 07:04 -41.22640 174.79326 4306 ft 207 kts 339°
2026-04-28 07:05 -41.21216 174.78799 5059 ft 215 kts 342°
2026-04-28 07:05 -41.19751 174.78295 5843 ft 219 kts 341°
2026-04-28 07:05 -41.18262 174.77784 6687 ft 221 kts 341°
2026-04-28 07:05 -41.16779 174.77275 7442 ft 224 kts 341°
2026-04-28 07:06 -41.15337 174.76461 8167 ft 225 kts 319°
2026-04-28 07:06 -41.14349 174.74903 8881 ft 225 kts 292°
2026-04-28 07:06 -41.14016 174.72881 9611 ft 226 kts 266°
2026-04-28 07:06 -41.14437 174.70872 10346 ft 230 kts 239°
2026-04-28 07:07 -41.15532 174.69349 11036 ft 237 kts 213°
2026-04-28 07:07 -41.17109 174.68654 11737 ft 245 kts 190°
2026-04-28 07:07 -41.18848 174.68607 12411 ft 256 kts 177°
2026-04-28 07:07 -41.20674 174.68900 12687 ft 279 kts 176°
2026-04-28 07:08 -41.22690 174.69239 12934 ft 303 kts 176°
2026-04-28 07:08 -41.24874 174.69609 13124 ft 326 kts 176°
2026-04-28 07:08 -41.27189 174.70003 13529 ft 340 kts 176°
2026-04-28 07:08 -41.29533 174.70405 14183 ft 345 kts 176°
2026-04-28 07:09 -41.31918 174.70815 14813 ft 349 kts 176°
2026-04-28 07:09 -41.34345 174.71231 15469 ft 352 kts 176°
2026-04-28 07:09 -41.36792 174.71347 16115 ft 351 kts 188°
2026-04-28 07:09 -41.39220 174.70837 16766 ft 352 kts 193°
2026-04-28 07:10 -41.41633 174.70271 17409 ft 355 kts 193°
2026-04-28 07:10 -41.43954 174.69293 18034 ft 353 kts 210°
2026-04-28 07:10 -41.45938 174.67369 18658 ft 352 kts 226°
2026-04-28 07:10 -41.47696 174.65066 19234 ft 355 kts 226°
2026-04-28 07:11 -41.49436 174.62766 19810 ft 358 kts 226°
2026-04-28 07:11 -41.51210 174.60415 20402 ft 360 kts 226°
2026-04-28 07:11 -41.53007 174.58037 20990 ft 363 kts 225°
2026-04-28 07:11 -41.54794 174.55674 21546 ft 366 kts 225°
2026-04-28 07:12 -41.56613 174.53269 22090 ft 369 kts 225°
2026-04-28 07:12 -41.58461 174.50829 22627 ft 373 kts 225°
2026-04-28 07:12 -41.60294 174.48412 23168 ft 376 kts 224°
2026-04-28 07:12 -41.62163 174.45942 23694 ft 380 kts 224°
2026-04-28 07:13 -41.64060 174.43427 24146 ft 384 kts 224°
2026-04-28 07:13 -41.65942 174.40923 24582 ft 387 kts 224°
2026-04-28 07:13 -41.67862 174.38363 25002 ft 391 kts 224°
2026-04-28 07:13 -41.69805 174.35773 25417 ft 394 kts 224°
2026-04-28 07:14 -41.71760 174.33172 25843 ft 397 kts 224°
2026-04-28 07:14 -41.73713 174.30578 26251 ft 400 kts 224°
2026-04-28 07:14 -41.75693 174.27944 26667 ft 403 kts 224°
2026-04-28 07:14 -41.77698 174.25268 27089 ft 405 kts 224°
2026-04-28 07:15 -41.79697 174.22593 27495 ft 407 kts 224°
2026-04-28 07:15 -41.81693 174.19919 27898 ft 410 kts 224°
2026-04-28 07:15 -41.83722 174.17201 28297 ft 412 kts 223°
2026-04-28 07:15 -41.85763 174.14468 28691 ft 415 kts 223°
2026-04-28 07:16 -41.87789 174.11757 29092 ft 417 kts 223°
2026-04-28 07:16 -41.89852 174.08993 29464 ft 420 kts 223°
2026-04-28 07:16 -41.91930 174.06204 29852 ft 422 kts 223°
2026-04-28 07:16 -41.94010 174.03403 30237 ft 425 kts 223°
2026-04-28 07:17 -41.96081 174.00608 30577 ft 427 kts 223°
2026-04-28 07:17 -41.98193 173.97764 30909 ft 429 kts 223°
2026-04-28 07:17 -42.00322 173.94896 31240 ft 431 kts 223°
2026-04-28 07:17 -42.02419 173.92063 31553 ft 433 kts 223°
2026-04-28 07:18 -42.04574 173.89148 31958 ft 433 kts 223°
2026-04-28 07:18 -42.06675 173.86304 32425 ft 431 kts 223°
2026-04-28 07:18 -42.08779 173.83455 32878 ft 430 kts 223°
2026-04-28 07:18 -42.10886 173.80594 33343 ft 429 kts 223°
2026-04-28 07:19 -42.12984 173.77738 33813 ft 428 kts 223°
2026-04-28 07:19 -42.15065 173.74907 34271 ft 427 kts 223°
2026-04-28 07:19 -42.17159 173.72060 34671 ft 426 kts 223°
2026-04-28 07:19 -42.19246 173.69217 35058 ft 425 kts 223°
2026-04-28 07:20 -42.21302 173.66412 35415 ft 423 kts 223°
2026-04-28 07:20 -42.23367 173.63585 35776 ft 422 kts 223°
2026-04-28 07:20 -42.25433 173.60760 36138 ft 421 kts 223°
2026-04-28 07:20 -42.27501 173.57942 36265 ft 420 kts 223°
2026-04-28 07:21 -42.29531 173.55175 36284 ft 418 kts 223°
2026-04-28 07:21 -42.33625 173.49587 36282 ft 417 kts 223°
2026-04-28 07:22 -42.39702 173.41220 36285 ft 417 kts 223°
2026-04-28 07:22 -42.43781 173.35600 36284 ft 417 kts 223°
2026-04-28 07:23 -42.47837 173.30011 36280 ft 417 kts 223°
2026-04-28 07:23 -42.51892 173.24415 36279 ft 417 kts 223°
2026-04-28 07:24 -42.55951 173.18785 36286 ft 417 kts 224°
2026-04-28 07:24 -42.59999 173.13159 36285 ft 417 kts 224°
2026-04-28 07:25 -42.64029 173.07561 36285 ft 417 kts 224°
2026-04-28 07:25 -42.68094 173.01898 36286 ft 417 kts 224°
2026-04-28 07:26 -42.72155 172.96219 36285 ft 417 kts 224°
2026-04-28 07:26 -42.76178 172.90587 36289 ft 417 kts 224°
2026-04-28 07:27 -42.80219 172.84933 36286 ft 417 kts 224°
2026-04-28 07:27 -42.84253 172.79281 36287 ft 417 kts 224°
2026-04-28 07:28 -42.88306 172.73592 36287 ft 417 kts 224°
2026-04-28 07:28 -42.92339 172.67913 36287 ft 417 kts 224°
2026-04-28 07:29 -42.96363 172.62231 36287 ft 417 kts 224°
2026-04-28 07:29 -43.00394 172.56511 36287 ft 417 kts 224°
2026-04-28 07:30 -43.04436 172.50781 36284 ft 417 kts 224°
2026-04-28 07:30 -43.08439 172.45095 36287 ft 417 kts 224°
2026-04-28 07:31 -43.12477 172.39347 36288 ft 418 kts 224°
2026-04-28 07:31 -43.16491 172.33623 36287 ft 417 kts 224°
2026-04-28 07:32 -43.20512 172.27865 36285 ft 417 kts 224°
2026-04-28 07:32 -43.24511 172.22129 36283 ft 417 kts 224°
2026-04-28 07:33 -43.27877 172.17296 36284 ft 417 kts 224°
2026-04-28 07:33 -43.31865 172.11562 36290 ft 417 kts 224°
2026-04-28 07:34 -43.35870 172.05802 36288 ft 417 kts 225°
2026-04-28 07:34 -43.39886 171.99990 36279 ft 417 kts 225°
2026-04-28 07:35 -43.43869 171.94224 36277 ft 417 kts 225°
2026-04-28 07:35 -43.47856 171.88448 36277 ft 417 kts 225°
2026-04-28 07:36 -43.51863 171.82636 36283 ft 417 kts 225°
2026-04-28 07:36 -43.55825 171.76869 36281 ft 417 kts 225°
2026-04-28 07:37 -43.59820 171.71035 36274 ft 417 kts 225°
2026-04-28 07:37 -43.63783 171.65244 36275 ft 416 kts 225°
2026-04-28 07:38 -43.67741 171.59447 36288 ft 416 kts 225°
2026-04-28 07:38 -43.71719 171.53591 36280 ft 416 kts 225°
2026-04-28 07:39 -43.75689 171.47750 36276 ft 416 kts 225°
2026-04-28 07:39 -43.79639 171.41920 36272 ft 416 kts 225°
2026-04-28 07:40 -43.83585 171.36092 36267 ft 416 kts 225°
2026-04-28 07:40 -43.87550 171.30218 36270 ft 417 kts 226°
2026-04-28 07:41 -43.91493 171.24366 36276 ft 417 kts 226°
2026-04-28 07:41 -43.95468 171.18465 36272 ft 417 kts 226°
2026-04-28 07:42 -43.99401 171.12606 36268 ft 417 kts 226°
2026-04-28 07:42 -44.03360 171.06704 36271 ft 417 kts 226°
2026-04-28 07:43 -44.07292 171.00828 36283 ft 417 kts 226°
2026-04-28 07:43 -44.11246 170.94888 36250 ft 417 kts 226°
2026-04-28 07:44 -44.13207 170.91933 35316 ft 417 kts 226°
2026-04-28 07:44 -44.15172 170.88982 34491 ft 420 kts 225°
2026-04-28 07:44 -44.17142 170.86021 34338 ft 409 kts 225°
2026-04-28 07:44 -44.19072 170.83119 33886 ft 405 kts 225°
2026-04-28 07:45 -44.20963 170.80267 33444 ft 401 kts 226°
2026-04-28 07:45 -44.22847 170.77417 33001 ft 397 kts 226°
2026-04-28 07:45 -44.24584 170.74436 32551 ft 395 kts 235°
2026-04-28 07:45 -44.25985 170.71150 32080 ft 393 kts 238°
2026-04-28 07:46 -44.27332 170.67877 31634 ft 390 kts 238°
2026-04-28 07:46 -44.28687 170.64590 31189 ft 388 kts 239°
2026-04-28 07:46 -44.30018 170.61366 30749 ft 386 kts 239°
2026-04-28 07:46 -44.31360 170.58112 30322 ft 383 kts 239°
2026-04-28 07:47 -44.32672 170.54915 29859 ft 381 kts 239°
2026-04-28 07:47 -44.33984 170.51715 29453 ft 377 kts 239°
2026-04-28 07:47 -44.35287 170.48537 29052 ft 374 kts 239°
2026-04-28 07:47 -44.36564 170.45424 28648 ft 372 kts 239°
2026-04-28 07:48 -44.37849 170.42282 28253 ft 370 kts 240°
2026-04-28 07:48 -44.39123 170.39159 27860 ft 368 kts 240°
2026-04-28 07:48 -44.40380 170.36073 27449 ft 366 kts 240°
2026-04-28 07:48 -44.41640 170.32979 27054 ft 365 kts 240°
2026-04-28 07:49 -44.42897 170.29892 26647 ft 364 kts 240°
2026-04-28 07:49 -44.44133 170.26853 26236 ft 363 kts 240°
2026-04-28 07:49 -44.45384 170.23774 25821 ft 362 kts 240°
2026-04-28 07:49 -44.46631 170.20707 25379 ft 361 kts 240°
2026-04-28 07:50 -44.47857 170.17690 24955 ft 360 kts 240°
2026-04-28 07:50 -44.49101 170.14620 24516 ft 360 kts 240°
2026-04-28 07:50 -44.50335 170.11557 24072 ft 360 kts 240°
2026-04-28 07:50 -44.51556 170.08526 23597 ft 360 kts 240°
2026-04-28 07:51 -44.52797 170.05448 23129 ft 358 kts 240°
2026-04-28 07:51 -44.54004 170.02459 22699 ft 355 kts 240°
2026-04-28 07:51 -44.55217 169.99448 22248 ft 352 kts 241°
2026-04-28 07:51 -44.56401 169.96498 21827 ft 350 kts 241°
2026-04-28 07:52 -44.57594 169.93527 21393 ft 347 kts 241°
2026-04-28 07:52 -44.58766 169.90602 20963 ft 344 kts 241°
2026-04-28 07:52 -44.59941 169.87669 20526 ft 342 kts 241°
2026-04-28 07:52 -44.61107 169.84752 20101 ft 340 kts 241°
2026-04-28 07:53 -44.62252 169.81892 19681 ft 338 kts 241°
2026-04-28 07:53 -44.63407 169.79011 19253 ft 336 kts 241°
2026-04-28 07:53 -44.64536 169.76189 18840 ft 334 kts 242°
2026-04-28 07:53 -44.65670 169.73349 18395 ft 332 kts 242°
2026-04-28 07:54 -44.66799 169.70517 17950 ft 330 kts 242°
2026-04-28 07:54 -44.67923 169.67700 17534 ft 326 kts 242°
2026-04-28 07:54 -44.69014 169.64964 17129 ft 324 kts 242°
2026-04-28 07:54 -44.70108 169.62213 16728 ft 321 kts 242°
2026-04-28 07:55 -44.71196 169.59482 16325 ft 318 kts 242°
2026-04-28 07:55 -44.72275 169.56769 15924 ft 316 kts 242°
2026-04-28 07:55 -44.73333 169.54106 15536 ft 314 kts 242°
2026-04-28 07:55 -44.74394 169.51426 15143 ft 312 kts 242°
2026-04-28 07:56 -44.75446 169.48765 14755 ft 310 kts 242°
2026-04-28 07:56 -44.76493 169.46116 14363 ft 308 kts 242°
2026-04-28 07:56 -44.77524 169.43501 13965 ft 307 kts 243°
2026-04-28 07:56 -44.78559 169.40868 13522 ft 306 kts 242°
2026-04-28 07:57 -44.79600 169.38219 12941 ft 310 kts 242°
2026-04-28 07:57 -44.80627 169.35605 12542 ft 307 kts 242°
2026-04-28 07:57 -44.81578 169.32917 12148 ft 304 kts 251°
2026-04-28 07:57 -44.82119 169.30058 11769 ft 301 kts 257°
2026-04-28 07:58 -44.82585 169.27224 11387 ft 298 kts 257°
2026-04-28 07:58 -44.83057 169.24382 11005 ft 296 kts 257°
2026-04-28 07:58 -44.83531 169.21554 10627 ft 294 kts 256°
2026-04-28 07:58 -44.83997 169.18770 10251 ft 293 kts 256°
2026-04-28 07:59 -44.84464 169.15983 9906 ft 290 kts 256°
2026-04-28 07:59 -44.85072 169.13370 9740 ft 277 kts 245°
2026-04-28 07:59 -44.86071 169.11056 9170 ft 280 kts 232°
2026-04-28 07:59 -44.87465 169.09108 8764 ft 282 kts 219°
2026-04-28 08:00 -44.89115 169.07666 8388 ft 282 kts 207°
2026-04-28 08:00 -44.90787 169.06814 8063 ft 274 kts 196°
2026-04-28 08:00 -44.92649 169.06437 7713 ft 266 kts 184°
2026-04-28 08:00 -44.94472 169.06545 7375 ft 257 kts 178°
2026-04-28 08:01 -44.96211 169.06712 7054 ft 248 kts 178°
2026-04-28 08:01 -44.97903 169.06873 6732 ft 239 kts 178°
2026-04-28 08:01 -44.99525 169.06717 6396 ft 229 kts 196°
2026-04-28 08:01 -45.00943 169.05938 6080 ft 215 kts 213°
2026-04-28 08:02 -45.02097 169.04688 5799 ft 202 kts 229°
2026-04-28 08:02 -45.02915 169.03197 5543 ft 186 kts 243°
2026-04-28 08:02 -45.03423 169.01560 5262 ft 176 kts 256°
2026-04-28 08:02 -45.03635 168.99912 5021 ft 165 kts 268°
2026-04-28 08:03 -45.03619 168.98332 4783 ft 158 kts 278°
2026-04-28 08:03 -45.03421 168.96839 4565 ft 149 kts 287°
2026-04-28 08:03 -45.03082 168.95528 4376 ft 140 kts 295°
2026-04-28 08:03 -45.02618 168.94336 4177 ft 137 kts 302°
2026-04-28 08:04 -45.02113 168.93190 3964 ft 137 kts 302°
2026-04-28 08:04 -45.01610 168.92049 3747 ft 137 kts 301°
2026-04-28 08:04 -45.01105 168.90905 3536 ft 137 kts 301°
2026-04-28 08:04 -45.00603 168.89767 3330 ft 138 kts 301°
2026-04-28 08:05 -45.00151 168.88567 3135 ft 138 kts 290°
2026-04-28 08:05 -44.99909 168.87257 2942 ft 137 kts 277°
2026-04-28 08:05 -44.99890 168.85907 2748 ft 137 kts 264°
2026-04-28 08:05 -45.00058 168.84596 2558 ft 137 kts 259°
2026-04-28 08:06 -45.00250 168.83279 2372 ft 137 kts 259°
2026-04-28 08:06 -45.00437 168.81981 2176 ft 137 kts 259°
2026-04-28 08:06 -45.00663 168.80669 1982 ft 136 kts 255°
2026-04-28 08:06 -45.00940 168.79386 1772 ft 135 kts 253°
2026-04-28 08:07 -45.01215 168.78135 1581 ft 134 kts 252°
2026-04-28 08:07 -45.01479 168.76887 1383 ft 132 kts 254°
2026-04-28 08:07 -45.01685 168.75612 1206 ft 133 kts 259°
2026-04-28 08:07 -45.01804 168.74678 1169 ft 97 kts 258°
2026-04-28 08:08 -45.01905 168.74174 1168 ft 14 kts 254°
2026-04-28 08:08 -45.01982 168.74095 1165 ft 16 kts 204°
2026-04-28 08:08 -45.02004 168.74081 1164 ft 4 kts 204°
2026-04-28 08:08 -45.02039 168.74056 1164 ft 7 kts 215°
2026-04-28 08:09 -45.02075 168.73990 1163 ft 10 kts 215°
2026-04-28 08:09 -45.02111 168.73963 1164 ft 0 kts 207°